Hourly Weather Cerkovische

Today, 23 June, Wednesday

Time Temperature Precipitation Wind Pressure Humidity
00:00 +21°C° 0 mm 3 mps 745 mmHg 90%
01:00 +21°C° 0 mm 2 mps 745 mmHg 91%
02:00 +21°C° 0 mm 2 mps 746 mmHg 93%
03:00 +21°C° 0 mm 2 mps 746 mmHg 93%
04:00 +21°C° 0 mm 2 mps 746 mmHg 92%
05:00 +21°C° 0 mm 2 mps 746 mmHg 92%
06:00 +24°C° 0 mm 3 mps 746 mmHg 87%
07:00 +26°C° 0 mm 3 mps 746 mmHg 81%
08:00 +27°C° 0 mm 4 mps 746 mmHg 75%
09:00 +28°C° 0 mm 4 mps 746 mmHg 71%
10:00 +30°C° 0 mm 4 mps 746 mmHg 67%
11:00 +32°C° 0 mm 4 mps 747 mmHg 63%
12:00 +32°C° 0 mm 4 mps 747 mmHg 60%
13:00 +33°C° 0 mm 4 mps 747 mmHg 57%
14:00 +33°C° 0 mm 4 mps 747 mmHg 55%
15:00 +33°C° 0 mm 3 mps 746 mmHg 57%
16:00 +32°C° 0 mm 2 mps 746 mmHg 60%
17:00 +32°C° 0 mm 2 mps 746 mmHg 63%
18:00 +30°C° 0 mm 2 mps 746 mmHg 67%
19:00 +29°C° 0 mm 2 mps 746 mmHg 71%
20:00 +27°C° 0 mm 2 mps 746 mmHg 75%
21:00 +26°C° 0 mm 2 mps 746 mmHg 77%
22:00 +25°C° 0 mm 2 mps 746 mmHg 79%
23:00 +24°C° 0 mm 2 mps 746 mmHg 81%

Tomorrow, 24 June, Thursday

Time Temperature Precipitation Wind Pressure Humidity
00:00 +24°C° 0 mm 2 mps 746 mmHg 84%
01:00 +23°C° 0 mm 2 mps 746 mmHg 87%
02:00 +23°C° 0 mm 2 mps 746 mmHg 89%
03:00 +23°C° 0 mm 2 mps 746 mmHg 90%
04:00 +23°C° 0 mm 2 mps 746 mmHg 91%
05:00 +24°C° 0 mm 2 mps 746 mmHg 91%
06:00 +25°C° 0 mm 2 mps 746 mmHg 86%
07:00 +27°C° 0 mm 2 mps 746 mmHg 82%
08:00 +28°C° 0 mm 3 mps 746 mmHg 77%
09:00 +29°C° 0 mm 3 mps 746 mmHg 71%
10:00 +30°C° 0 mm 3 mps 746 mmHg 66%
11:00 +31°C° 0 mm 3 mps 746 mmHg 60%
12:00 +33°C° 0 mm 3 mps 746 mmHg 57%
13:00 +32°C° 0 mm 2 mps 746 mmHg 54%
14:00 +34°C° 0 mm 2 mps 746 mmHg 51%
15:00 +34°C° 0 mm 2 mps 746 mmHg 55%
16:00 +32°C° 0 mm 2 mps 745 mmHg 58%
17:00 +32°C° 0 mm 2 mps 745 mmHg 62%
18:00 +30°C° 0 mm 2 mps 745 mmHg 67%
19:00 +29°C° 0 mm 2 mps 744 mmHg 73%
20:00 +27°C° 0 mm 2 mps 744 mmHg 78%
21:00 +26°C° 0 mm 2 mps 744 mmHg 79%
22:00 +25°C° 0 mm 2 mps 744 mmHg 80%
23:00 +25°C° 0 mm 2 mps 744 mmHg 82%

Day after tomorrow, 25 June, Friday

Time Temperature Precipitation Wind Pressure Humidity
00:00 +24°C° 0.1 mm 2 mps 744 mmHg 84%
01:00 +24°C° 0.1 mm 3 mps 744 mmHg 87%
02:00 +22°C° 0.1 mm 3 mps 744 mmHg 90%
03:00 +22°C° 0.1 mm 3 mps 744 mmHg 90%
04:00 +23°C° 0.1 mm 2 mps 744 mmHg 91%
05:00 +23°C° 0.1 mm 2 mps 744 mmHg 91%
06:00 +25°C° 0 mm 3 mps 744 mmHg 86%
07:00 +26°C° 0 mm 3 mps 743 mmHg 80%
08:00 +28°C° 0 mm 4 mps 743 mmHg 75%
09:00 +29°C° 0 mm 4 mps 744 mmHg 69%
10:00 +30°C° 0 mm 4 mps 744 mmHg 63%
11:00 +32°C° 0 mm 5 mps 744 mmHg 57%
12:00 +32°C° 0 mm 4 mps 744 mmHg 55%
13:00 +33°C° 0 mm 4 mps 744 mmHg 53%
14:00 +33°C° 0 mm 4 mps 744 mmHg 51%
15:00 +33°C° 0 mm 3 mps 743 mmHg 55%
16:00 +33°C° 0 mm 3 mps 743 mmHg 59%
17:00 +31°C° 0 mm 3 mps 742 mmHg 64%
18:00 +28°C° 0.6 mm 3 mps 742 mmHg 72%
19:00 +26°C° 0.6 mm 3 mps 742 mmHg 80%
20:00 +22°C° 0.6 mm 3 mps 742 mmHg 88%
21:00 +21°C° 1.2 mm 3 mps 742 mmHg 90%
22:00 +20°C° 1.2 mm 3 mps 742 mmHg 93%
23:00 +19°C° 1.2 mm 3 mps 742 mmHg 95%

26 June, Saturday

Time Temperature Precipitation Wind Pressure Humidity
00:00 +19°C° 0.4 mm 3 mps 742 mmHg 95%
01:00 +20°C° 0.4 mm 3 mps 742 mmHg 95%
02:00 +20°C° 0.4 mm 2 mps 741 mmHg 95%
03:00 +20°C° 0.4 mm 2 mps 741 mmHg 93%
04:00 +21°C° 0.4 mm 2 mps 741 mmHg 92%
05:00 +22°C° 0.4 mm 1 mps 741 mmHg 91%
06:00 +23°C° 0 mm 2 mps 741 mmHg 86%
07:00 +24°C° 0 mm 2 mps 741 mmHg 82%
08:00 +26°C° 0 mm 2 mps 741 mmHg 78%
09:00 +27°C° 0.1 mm 2 mps 742 mmHg 73%
10:00 +28°C° 0.1 mm 3 mps 742 mmHg 69%
11:00 +30°C° 0.1 mm 3 mps 742 mmHg 65%
12:00 +30°C° 0.2 mm 3 mps 742 mmHg 62%
13:00 +30°C° 0.2 mm 3 mps 742 mmHg 60%
14:00 +31°C° 0.2 mm 3 mps 742 mmHg 58%
15:00 +29°C° 0.7 mm 3 mps 741 mmHg 65%
16:00 +28°C° 0.7 mm 4 mps 741 mmHg 72%
17:00 +26°C° 0.7 mm 4 mps 740 mmHg 79%
18:00 +25°C° 0.3 mm 3 mps 741 mmHg 83%
19:00 +22°C° 0.3 mm 3 mps 741 mmHg 87%
20:00 +20°C° 0.3 mm 2 mps 742 mmHg 90%
21:00 +20°C° 0.1 mm 2 mps 741 mmHg 92%
22:00 +19°C° 0.1 mm 2 mps 741 mmHg 93%
23:00 +19°C° 0.1 mm 2 mps 741 mmHg 95%

27 June, Sunday

Time Temperature Precipitation Wind Pressure Humidity
00:00 +19°C° 0.1 mm 2 mps 741 mmHg 95%
01:00 +18°C° 0.1 mm 2 mps 741 mmHg 96%
02:00 +18°C° 0.1 mm 2 mps 742 mmHg 96%
03:00 +18°C° 0 mm 2 mps 741 mmHg 96%
04:00 +19°C° 0 mm 2 mps 741 mmHg 95%
05:00 +20°C° 0 mm 1 mps 741 mmHg 95%
06:00 +21°C° 0 mm 1 mps 741 mmHg 94%
07:00 +21°C° 0 mm 1 mps 742 mmHg 92%
08:00 +22°C° 0 mm 1 mps 742 mmHg 90%
09:00 +23°C° 0.1 mm 1 mps 742 mmHg 88%
10:00 +23°C° 0.1 mm 1 mps 742 mmHg 86%
11:00 +24°C° 0.1 mm 1 mps 742 mmHg 84%
12:00 +24°C° 0.6 mm 2 mps 742 mmHg 82%
13:00 +25°C° 0.6 mm 2 mps 742 mmHg 80%
14:00 +25°C° 0.6 mm 3 mps 742 mmHg 77%
15:00 +25°C° 0.3 mm 3 mps 742 mmHg 76%
16:00 +26°C° 0.3 mm 3 mps 742 mmHg 74%
17:00 +26°C° 0.3 mm 3 mps 742 mmHg 72%
18:00 +25°C° 0 mm 3 mps 742 mmHg 77%
19:00 +24°C° 0 mm 3 mps 742 mmHg 81%
20:00 +21°C° 0 mm 2 mps 742 mmHg 85%
21:00 +20°C° 0 mm 3 mps 742 mmHg 87%
22:00 +19°C° 0 mm 3 mps 742 mmHg 90%
23:00 +18°C° 0 mm 3 mps 742 mmHg 92%

28 June, Monday

Time Temperature Precipitation Wind Pressure Humidity
00:00 +18°C° 0 mm 3 mps 742 mmHg 93%
01:00 +17°C° 0 mm 3 mps 742 mmHg 94%
02:00 +16°C° 0 mm 3 mps 742 mmHg 95%
03:00 +17°C° 0 mm 3 mps 742 mmHg 95%
04:00 +17°C° 0 mm 3 mps 742 mmHg 94%
05:00 +17°C° 0 mm 3 mps 742 mmHg 93%
06:00 +18°C° 0 mm 3 mps 742 mmHg 89%
07:00 +19°C° 0 mm 4 mps 742 mmHg 84%
08:00 +21°C° 0 mm 4 mps 742 mmHg 79%
09:00 +21°C° 0 mm 4 mps 742 mmHg 76%
10:00 +22°C° 0 mm 4 mps 742 mmHg 73%
11:00 +23°C° 0 mm 4 mps 742 mmHg 69%
12:00 +23°C° 0 mm 4 mps 742 mmHg 67%
13:00 +25°C° 0 mm 4 mps 742 mmHg 65%
14:00 +25°C° 0 mm 5 mps 742 mmHg 63%
15:00 +25°C° 0 mm 4 mps 742 mmHg 65%
16:00 +25°C° 0 mm 4 mps 742 mmHg 67%
17:00 +25°C° 0 mm 4 mps 742 mmHg 69%
18:00 +23°C° 0 mm 4 mps 742 mmHg 71%
19:00 +21°C° 0 mm 4 mps 741 mmHg 74%
20:00 +20°C° 0 mm 4 mps 741 mmHg 76%
21:00 +19°C° 0 mm 3 mps 741 mmHg 77%
22:00 +18°C° 0 mm 3 mps 741 mmHg 77%
23:00 +17°C° 0 mm 3 mps 741 mmHg 78%
Show more

We Need Your Consent

Meteoprog and our Service Providers may store and access personal data such as cookies, device identifiers or other similar technologies on your device and process such data to personalise content and ads, as well as provide social media features and to analyse the traffic.

  • Store and/or access information on your device

    Cookies, device identifiers or other information can be stored or accessed on your device for the purposes indicated above.

  • Personalised ads and content, ad and content measurement, audience insights, and products development

    Ads and content can be personalised based on a profile. More data can be added to better personalise ads and content. Ad and content performance can be measured. Insights about the audience who saw the ads and content can be derived. Such data can be used to develop or improve user’s experience, systems and software.

By clicking ‘I Agree’ you will allow the use of indicated cookies, device identifiers, web beacons or other similar technologies. Your settings can be changed in the browser on your device.

For certain purposes, legitimate interests may be relied on, rather than consent. You can read more about this in our Privacy and Cookie Policy.